�N����,����,�~����,�C��,���x,�C��,����,���ϕ���,�ő�u�ԕ���,�ő厞����,���˗�,�I�_���x,�n�����x,�ő啗���N��,DTYPE
"23/10/13","00:10",0.0,13.2,83.3,1015.4,310.4,2.1,2.9,309.3,0.00,10.5,17.9,"00:05:24",1
"23/10/13","00:20",0.0,13.2,83.2,1015.4,309.6,2.1,2.8,293.1,0.00,10.5,18.1,"00:19:24",1
"23/10/13","00:30",0.0,13.3,83.1,1015.2,305.7,2.1,3.3,295.2,0.00,10.5,18.1,"00:29:08",1
"23/10/13","00:40",0.0,13.1,83.1,1015.2,321.5,1.8,3.1,319.8,0.00,10.3,17.8,"00:39:34",1
"23/10/13","00:50",0.0,13.1,83.3,1014.5,323.0,2.1,3.3,328.9,0.00,10.4,17.9,"00:49:36",1
"23/10/13","01:00",0.0,12.9,83.5,1014.7,327.4,2.3,4.1,323.5,0.00,10.2,17.8,"00:50:58",1
"23/10/13","01:10",0.0,12.8,84.0,1014.7,320.2,2.0,2.9,326.8,0.00,10.2,18.0,"01:04:52",1
"23/10/13","01:20",0.0,12.8,84.3,1015.2,305.5,2.1,3.2,321.0,0.00,10.3,17.9,"01:15:48",1
"23/10/13","01:30",0.0,12.5,84.6,1014.9,299.2,1.3,2.2,322.5,0.00,10.0,17.8,"01:28:20",1
"23/10/13","01:40",0.0,12.0,84.9,1014.9,298.2,1.1,1.4,295.0,0.00,9.6,17.8,"01:37:28",1
"23/10/13","01:50",0.0,11.5,85.3,1014.9,304.9,1.6,2.0,311.2,0.00,9.2,17.7,"01:48:14",1
"23/10/13","02:00",0.0,11.8,86.2,1014.7,316.7,2.0,2.9,323.3,0.00,9.6,17.7,"01:55:02",1
"23/10/13","02:10",0.0,12.2,86.5,1014.7,319.7,2.5,3.4,323.1,0.00,10.1,17.7,"02:03:02",1
"23/10/13","02:20",0.0,12.4,86.6,1014.9,317.9,2.3,3.6,317.6,0.00,10.3,17.7,"02:17:12",1
"23/10/13","02:30",0.0,12.5,86.5,1014.5,324.6,2.1,3.6,306.8,0.00,10.4,17.5,"02:22:14",1
"23/10/13","02:40",0.0,12.5,86.3,1014.5,321.1,2.2,3.4,342.3,0.00,10.3,17.6,"02:31:30",1
"23/10/13","02:50",0.0,12.4,86.4,1014.5,316.1,2.3,3.2,315.4,0.00,10.2,17.6,"02:48:38",1
"23/10/13","03:00",0.0,12.3,86.4,1014.5,308.6,2.0,3.1,319.1,0.00,10.1,17.6,"02:50:10",1
"23/10/13","03:10",0.0,12.3,86.6,1014.0,313.5,1.8,3.1,313.8,0.00,10.2,17.7,"03:06:42",1
"23/10/13","03:20",0.0,12.4,86.6,1014.5,305.5,1.7,2.5,313.8,0.00,10.3,17.6,"03:16:20",1
"23/10/13","03:30",0.0,12.1,86.6,1014.0,307.8,1.7,2.4,320.9,0.00,10.0,17.4,"03:29:12",1
"23/10/13","03:40",0.0,12.1,87.0,1014.2,292.2,1.6,2.5,323.1,0.00,10.0,17.6,"03:33:50",1
"23/10/13","03:50",0.0,12.0,87.3,1014.0,294.1,2.0,2.6,317.8,0.00,10.0,17.6,"03:47:20",1
"23/10/13","04:00",0.0,11.5,87.4,1014.2,314.1,1.5,2.6,326.1,0.00,9.5,17.4,"03:51:46",1
"23/10/13","04:10",0.0,11.1,88.1,1014.5,321.2,1.7,2.1,320.6,0.00,9.2,17.4,"04:03:52",1
"23/10/13","04:20",0.0,10.9,88.5,1014.0,309.8,1.6,2.5,308.1,0.00,9.1,17.3,"04:18:24",1
"23/10/13","04:30",0.0,10.7,89.1,1014.5,300.5,1.7,2.5,298.5,0.00,9.0,17.4,"04:27:52",1
"23/10/13","04:40",0.0,10.7,89.6,1014.0,319.3,1.8,2.6,302.6,0.00,9.1,17.3,"04:38:24",1
"23/10/13","04:50",0.0,10.5,90.0,1014.2,306.5,1.6,2.6,312.3,0.00,9.0,17.2,"04:40:02",1
"23/10/13","05:00",0.0,10.8,90.4,1014.2,307.7,1.8,2.6,337.5,0.00,9.3,17.3,"04:52:08",1
"23/10/13","05:10",0.0,10.7,90.7,1014.0,310.6,2.0,2.6,314.2,0.00,9.3,17.3,"05:08:08",1
"23/10/13","05:20",0.0,10.4,91.1,1014.0,316.5,1.8,2.5,316.8,0.00,9.1,17.3,"05:14:24",1
"23/10/13","05:30",0.0,10.1,91.5,1014.2,311.6,0.8,1.7,283.0,0.00,8.8,17.0,"05:29:12",1
"23/10/13","05:40",0.0,9.9,91.9,1014.2,308.1,1.6,2.2,323.9,0.00,8.7,17.1,"05:32:56",1
"23/10/13","05:50",0.0,9.8,92.1,1014.2,297.2,1.2,1.6,313.6,0.00,8.6,17.0,"05:42:56",1
"23/10/13","06:00",0.0,9.8,92.3,1014.2,296.4,0.7,1.7,272.0,0.00,8.7,17.0,"05:56:24",1
"23/10/13","06:10",0.0,9.8,92.7,1014.2,303.9,1.7,2.4,321.7,0.00,8.7,17.0,"06:06:48",1
"23/10/13","06:20",0.0,9.8,93.0,1014.5,297.6,1.2,2.2,318.8,0.00,8.8,17.0,"06:19:04",1
"23/10/13","06:30",0.0,10.1,93.3,1014.2,316.0,2.1,2.5,319.1,0.00,9.1,16.9,"06:20:48",1
"23/10/13","06:40",0.0,10.7,93.4,1014.2,305.5,1.8,2.2,336.4,0.00,9.7,16.8,"06:30:50",1
"23/10/13","06:50",0.0,11.3,93.6,1014.2,295.9,1.2,1.8,305.8,0.00,10.3,16.7,"06:42:06",1
"23/10/13","07:00",0.0,12.1,93.6,1014.5,299.1,0.2,0.9,305.7,0.01,11.1,16.7,"06:59:52",1
"23/10/13","07:10",0.0,12.8,93.7,1014.7,302.5,0.7,1.1,328.6,0.02,11.9,16.9,"07:07:04",1
"23/10/13","07:20",0.0,13.9,93.9,1014.5,323.9,0.8,1.3,329.6,0.04,13.0,16.7,"07:10:16",1
"23/10/13","07:30",0.0,14.6,92.8,1014.7,314.2,0.7,2.9,303.3,0.06,13.5,16.8,"07:29:52",1
"23/10/13","07:40",0.0,15.1,92.4,1014.7,312.7,1.0,2.0,315.2,0.09,13.9,16.8,"07:36:32",1
"23/10/13","07:50",0.0,15.7,90.4,1014.9,285.6,0.3,0.9,353.9,0.11,14.2,16.8,"07:40:08",1
"23/10/13","08:00",0.0,16.5,88.7,1015.2,182.8,0.5,1.4,126.9,0.14,14.7,16.8,"07:55:28",1
"23/10/13","08:10",0.0,16.8,84.4,1015.2,189.3,0.6,1.4,141.1,0.16,14.2,16.7,"08:06:32",1
"23/10/13","08:20",0.0,17.3,80.0,1015.2,197.0,0.6,1.2,119.0,0.19,13.9,16.9,"08:11:44",1
"23/10/13","08:30",0.0,17.8,76.1,1014.7,213.8,0.5,1.6,104.7,0.21,13.6,16.8,"08:22:00",1
"23/10/13","08:40",0.0,18.3,74.0,1014.5,265.7,0.5,1.8,240.6,0.22,13.6,17.1,"08:32:24",1
"23/10/13","08:50",0.0,18.7,71.5,1014.2,249.9,0.3,1.2,203.4,0.23,13.5,16.7,"08:42:16",1
"23/10/13","09:00",0.0,19.3,70.1,1014.2,274.4,0.6,2.0,228.9,0.26,13.8,17.1,"08:50:02",1
"23/10/13","09:10",0.0,19.7,68.3,1013.8,254.0,1.2,2.6,241.0,0.29,13.7,16.9,"09:00:24",1
"23/10/13","09:20",0.0,20.4,64.7,1013.3,275.3,1.3,3.2,252.9,0.29,13.6,16.9,"09:15:36",1
"23/10/13","09:30",0.0,20.9,62.9,1013.0,257.6,1.0,2.8,245.0,0.32,13.6,17.0,"09:25:44",1
"23/10/13","09:40",0.0,21.4,61.0,1013.0,337.5,2.1,6.2,355.4,0.33,13.6,17.2,"09:39:36",1
"23/10/13","09:50",0.0,21.7,58.5,1012.8,350.7,2.1,5.1,349.3,0.35,13.3,17.3,"09:47:04",1
"23/10/13","10:00",0.0,21.7,56.1,1012.6,1.3,2.0,4.4,339.5,0.29,12.6,17.4,"09:56:08",1
"23/10/13","10:10",0.0,21.7,55.3,1012.1,355.5,2.1,4.2,335.2,0.28,12.4,17.2,"10:02:40",1
"23/10/13","10:20",0.0,21.6,54.8,1012.3,349.5,2.8,6.5,330.1,0.31,12.2,17.7,"10:15:36",1
"23/10/13","10:30",0.0,22.0,53.5,1012.1,3.8,2.2,5.0,344.2,0.39,12.2,17.5,"10:21:28",1
"23/10/13","10:40",0.0,22.8,52.5,1011.9,355.8,2.0,4.7,348.2,0.42,12.6,17.7,"10:31:28",1
"23/10/13","10:50",0.0,22.8,51.0,1011.4,347.8,2.5,4.9,353.5,0.45,12.2,17.9,"10:47:04",1
"23/10/13","11:00",0.0,23.2,49.7,1011.2,351.5,2.2,5.9,324.0,0.45,12.2,17.7,"10:57:52",1
"23/10/13","11:10",0.0,23.4,48.4,1010.9,342.7,2.5,5.0,333.1,0.46,11.9,18.1,"11:05:12",1
"23/10/13","11:20",0.0,23.6,48.2,1010.7,354.0,2.6,5.5,344.2,0.46,12.1,17.9,"11:14:48",1
"23/10/13","11:30",0.0,23.7,45.7,1010.0,357.0,2.2,4.8,8.6,0.46,11.3,18.1,"11:24:08",1
"23/10/13","11:40",0.0,23.9,45.7,1010.2,338.3,2.0,4.9,337.1,0.44,11.5,18.0,"11:38:40",1
"23/10/13","11:50",0.0,24.0,45.2,1010.2,347.9,2.3,4.3,13.9,0.44,11.5,17.9,"11:44:48",1
"23/10/13","12:00",0.0,23.9,44.9,1010.0,343.9,2.2,4.2,341.0,0.44,11.3,18.3,"11:56:00",1
"23/10/13","12:10",0.0,24.4,43.4,1009.5,355.8,2.0,4.5,337.1,0.44,11.2,18.3,"12:02:40",1
"23/10/13","12:20",0.0,24.3,42.7,1009.0,328.9,2.1,4.7,353.5,0.41,10.9,18.5,"12:15:44",1
"23/10/13","12:30",0.0,24.5,41.5,1009.0,324.9,1.8,3.5,336.2,0.39,10.6,18.6,"12:21:44",1
"23/10/13","12:40",0.0,24.5,42.8,1008.8,334.1,1.8,3.7,358.7,0.37,11.1,18.7,"12:35:12",1
"23/10/13","12:50",0.0,24.4,43.0,1008.6,337.2,2.1,4.5,327.2,0.37,11.1,18.7,"12:45:36",1
"23/10/13","13:00",0.0,24.3,41.5,1008.8,330.3,2.1,5.1,340.6,0.41,10.4,18.8,"12:55:12",1
"23/10/13","13:10",0.0,24.4,41.0,1008.1,344.4,2.1,4.4,345.0,0.40,10.3,19.1,"13:00:40",1
"23/10/13","13:20",0.0,24.8,41.3,1008.1,341.0,1.8,4.3,342.7,0.39,10.8,19.0,"13:14:32",1
"23/10/13","13:30",0.0,25.0,42.0,1007.6,284.8,1.8,4.2,247.8,0.38,11.2,19.2,"13:25:44",1
"23/10/13","13:40",0.0,24.9,40.7,1007.1,316.0,1.6,3.6,334.2,0.36,10.7,19.2,"13:34:00",1
"23/10/13","13:50",0.0,24.9,41.5,1007.1,352.2,2.0,4.0,333.4,0.35,11.0,19.2,"13:42:08",1
"23/10/13","14:00",0.0,25.1,41.4,1006.7,357.0,1.8,3.9,16.2,0.34,11.1,19.2,"13:53:28",1
"23/10/13","14:10",0.0,25.2,40.2,1006.9,358.7,1.7,3.2,353.5,0.31,10.8,19.4,"14:04:32",1
"23/10/13","14:20",0.0,25.5,40.5,1006.7,359.9,1.5,4.0,351.7,0.30,11.1,19.1,"14:10:02",1
"23/10/13","14:30",0.0,24.8,39.6,1007.1,1.5,2.2,4.3,349.6,0.27,10.2,19.5,"14:23:20",1
"23/10/13","14:40",0.0,24.9,39.9,1007.1,359.4,1.5,3.5,347.1,0.24,10.4,19.6,"14:37:20",1
"23/10/13","14:50",0.0,24.8,41.5,1007.1,346.7,1.7,3.3,353.7,0.20,10.9,19.6,"14:46:48",1
"23/10/13","15:00",0.0,24.7,41.6,1006.7,349.9,2.1,4.0,351.3,0.21,10.8,19.7,"14:58:48",1
"23/10/13","15:10",0.0,24.4,43.7,1006.7,351.5,2.3,5.4,334.2,0.20,11.3,19.7,"15:01:28",1
"23/10/13","15:20",0.0,24.1,45.1,1007.1,348.7,2.2,4.5,345.9,0.17,11.5,19.7,"15:15:36",1
"23/10/13","15:30",0.0,23.5,46.9,1007.1,344.3,2.5,4.9,328.9,0.12,11.6,19.7,"15:20:40",1
"23/10/13","15:40",0.0,23.0,48.0,1007.1,342.8,2.8,6.3,336.1,0.12,11.4,19.8,"15:38:24",1
"23/10/13","15:50",0.0,22.9,48.4,1006.9,337.7,3.1,5.5,340.9,0.14,11.5,19.8,"15:48:32",1
"23/10/13","16:00",0.0,22.4,49.6,1007.4,339.5,3.7,6.2,342.5,0.09,11.4,19.5,"15:52:00",1
"23/10/13","16:10",0.0,21.8,51.3,1007.4,339.9,4.1,7.1,354.5,0.07,11.4,19.7,"16:08:36",1
"23/10/13","16:20",0.0,21.5,53.6,1007.4,338.9,3.0,6.4,334.4,0.04,11.7,19.6,"16:10:24",1
"23/10/13","16:30",0.0,21.2,53.9,1007.4,340.0,2.8,6.3,343.3,0.03,11.5,19.7,"16:23:12",1
"23/10/13","16:40",0.0,20.6,55.0,1007.6,341.1,3.0,6.6,336.6,0.02,11.3,19.6,"16:35:52",1
"23/10/13","16:50",0.0,20.3,56.9,1007.8,336.6,2.6,4.9,326.8,0.01,11.5,19.7,"16:41:12",1
"23/10/13","17:00",0.0,19.9,58.9,1008.3,340.1,2.5,4.9,345.5,0.00,11.7,19.8,"16:53:52",1
"23/10/13","17:10",0.0,19.5,60.7,1008.3,336.8,2.2,5.1,342.3,0.00,11.8,19.6,"17:01:44",1
"23/10/13","17:20",0.0,19.2,61.9,1007.8,340.5,2.5,4.1,335.0,0.00,11.8,19.7,"17:19:36",1
"23/10/13","17:30",0.0,18.9,63.2,1008.1,341.1,2.1,3.9,351.1,0.00,11.8,19.5,"17:21:36",1
"23/10/13","17:40",0.0,18.6,64.4,1008.3,334.6,2.5,5.1,334.1,0.00,11.8,19.6,"17:34:56",1
"23/10/13","17:50",0.0,18.5,64.9,1008.6,338.2,2.8,7.4,334.2,0.00,11.8,19.6,"17:40:16",1
"23/10/13","18:00",0.0,18.4,65.2,1008.3,335.9,3.4,5.6,328.5,0.00,11.8,19.5,"17:55:20",1
"23/10/13","18:10",0.0,18.3,65.7,1008.8,335.1,2.8,6.6,332.8,0.00,11.8,19.5,"18:02:40",1
"23/10/13","18:20",0.0,18.0,65.9,1008.6,333.5,2.2,5.6,334.4,0.00,11.6,19.4,"18:12:32",1
"23/10/13","18:30",0.0,17.9,65.6,1008.8,337.9,2.2,5.7,348.3,0.00,11.4,19.4,"18:20:16",1
"23/10/13","18:40",0.0,17.8,66.0,1008.6,342.6,1.5,3.1,314.7,0.00,11.4,19.3,"18:39:52",1
"23/10/13","18:50",0.0,17.8,66.2,1008.6,339.1,2.0,4.3,341.4,0.00,11.5,19.2,"18:48:16",1
"23/10/13","19:00",0.0,17.7,66.4,1008.6,328.2,2.0,4.2,326.1,0.00,11.4,19.2,"18:53:44",1
"23/10/13","19:10",0.0,17.6,66.6,1008.8,323.2,2.3,4.8,316.9,0.00,11.4,19.3,"19:00:02",1
"23/10/13","19:20",0.0,17.6,66.4,1008.8,325.6,2.5,4.8,344.7,0.00,11.3,19.2,"19:10:48",1
"23/10/13","19:30",0.0,17.5,66.5,1009.3,319.4,2.3,5.5,324.8,0.00,11.2,19.0,"19:24:32",1
"23/10/13","19:40",0.0,17.4,66.8,1009.3,316.8,2.5,5.4,338.9,0.00,11.2,19.1,"19:33:36",1
"23/10/13","19:50",0.0,17.3,67.2,1009.0,320.0,2.3,4.1,293.3,0.00,11.2,19.2,"19:45:44",1
"23/10/13","20:00",0.0,17.1,67.5,1009.3,321.2,2.8,4.9,331.3,0.00,11.1,19.0,"19:58:00",1
"23/10/13","20:10",0.0,16.9,67.9,1009.0,320.5,2.5,4.0,338.0,0.00,11.0,18.9,"20:04:24",1
"23/10/13","20:20",0.0,16.9,68.0,1009.0,313.6,2.2,4.2,344.8,0.00,11.0,19.0,"20:10:02",1
"23/10/13","20:30",0.0,17.0,67.6,1009.3,320.4,2.6,4.8,345.5,0.00,11.0,19.1,"20:21:12",1
"23/10/13","20:40",0.0,16.8,67.9,1008.8,325.8,2.3,4.7,325.3,0.00,10.9,18.9,"20:31:52",1
"23/10/13","20:50",0.0,16.7,68.0,1009.3,298.8,1.8,3.5,317.3,0.00,10.8,18.9,"20:44:56",1
"23/10/13","21:00",0.0,16.1,69.3,1008.6,275.5,0.7,1.4,251.7,0.00,10.5,18.8,"20:50:24",1
"23/10/13","21:10",0.0,15.8,70.9,1009.0,267.4,1.1,2.0,307.8,0.00,10.6,18.7,"21:09:46",1
"23/10/13","21:20",0.0,15.7,71.4,1009.0,273.7,1.2,2.6,297.7,0.00,10.6,18.7,"21:10:24",1
"23/10/13","21:30",0.0,15.6,71.9,1009.3,302.2,1.2,2.1,319.0,0.00,10.6,18.7,"21:29:54",1
"23/10/13","21:40",0.0,15.7,72.6,1009.3,305.4,1.7,3.2,316.4,0.00,10.8,18.7,"21:37:46",1
"23/10/13","21:50",0.0,15.7,73.1,1009.7,305.4,1.7,2.8,343.8,0.00,10.9,18.6,"21:49:08",1
"23/10/13","22:00",0.0,15.6,73.6,1009.5,312.4,1.8,2.6,318.4,0.00,10.9,18.4,"21:55:38",1
"23/10/13","22:10",0.0,15.6,74.0,1009.5,313.1,1.7,2.8,319.4,0.00,11.0,18.4,"22:06:34",1
"23/10/13","22:20",0.0,15.5,74.3,1009.5,322.2,1.8,3.3,336.5,0.00,11.0,18.6,"22:16:36",1
"23/10/13","22:30",0.0,15.3,74.5,1009.3,317.0,1.2,1.7,331.7,0.00,10.8,18.6,"22:22:08",1
"23/10/13","22:40",0.0,15.0,75.2,1009.5,336.9,0.7,1.7,332.5,0.00,10.7,18.5,"22:38:48",1
"23/10/13","22:50",0.0,14.7,76.1,1009.3,327.2,1.1,1.7,344.6,0.00,10.6,18.5,"22:40:02",1
"23/10/13","23:00",0.0,14.5,77.6,1009.5,334.2,1.5,2.2,330.7,0.00,10.7,18.4,"22:58:08",1
"23/10/13","23:10",0.0,14.1,79.1,1009.3,325.7,1.6,2.6,333.9,0.00,10.6,18.4,"23:03:46",1
"23/10/13","23:20",0.0,14.0,80.6,1009.0,318.7,1.7,2.7,338.9,0.00,10.8,18.4,"23:12:10",1
"23/10/13","23:30",0.0,14.0,81.6,1008.8,314.6,1.8,2.7,326.7,0.00,10.9,18.2,"23:23:54",1
"23/10/13","23:40",0.0,13.8,82.0,1009.0,317.4,1.7,3.1,320.5,0.00,10.8,18.3,"23:32:50",1
"23/10/13","23:50",0.0,13.5,82.6,1009.3,308.4,1.6,2.1,301.7,0.00,10.6,18.2,"23:48:12",1
"23/10/13","24:00",0.0,13.5,83.1,1009.3,309.9,1.7,2.5,333.0,0.00,10.7,18.1,"23:58:10",1
